Radiation Dose at Monitoring Post of Fukushima Daini Nuclear Power Station
Date,Time,MP-1(microSv/h),MP-2(microSv/h),MP-3(microSv/h),MP-4(microSv/h),MP-5(microSv/h),MP-6(microSv/h),MP-7(microSv/h),Wind Direction,Wind Velocity(m/s),Rain
2017/04/23,00:00,0.376,0.230,0.393,0.362,0.330,0.191,0.162,north-northwest,3.8,No
2017/04/23,00:10,0.377,0.229,0.390,0.363,0.329,0.192,0.161,north-northwest,1.9,No
2017/04/23,00:20,0.377,0.231,0.391,0.363,0.329,0.191,0.161,north-northwest,0.9,No
2017/04/23,00:30,0.375,0.230,0.392,0.360,0.330,0.191,0.161,north,0.8,No
2017/04/23,00:40,0.377,0.230,0.390,0.362,0.328,0.191,0.162,north,2.3,No
2017/04/23,00:50,0.376,0.229,0.391,0.361,0.330,0.191,0.161,north,1.3,No
2017/04/23,01:00,0.377,0.231,0.391,0.361,0.331,0.192,0.161,north-northwest,2.5,No
2017/04/23,01:10,0.378,0.230,0.392,0.362,0.330,0.191,0.161,north-northwest,4.2,No
2017/04/23,01:20,0.376,0.230,0.389,0.363,0.329,0.191,0.161,northwest,3.8,No
2017/04/23,01:30,0.376,0.231,0.392,0.360,0.331,0.192,0.161,northwest,2.6,No
2017/04/23,01:40,0.378,0.230,0.392,0.363,0.329,0.192,0.161,west-northwest,3.6,No
2017/04/23,01:50,0.376,0.231,0.390,0.361,0.329,0.192,0.161,west-northwest,3.1,No
2017/04/23,02:00,0.376,0.230,0.392,0.361,0.331,0.191,0.161,west-northwest,1.7,No
2017/04/23,02:10,0.377,0.230,0.392,0.363,0.331,0.191,0.162,-,CALM,No
2017/04/23,02:20,0.378,0.230,0.391,0.362,0.328,0.191,0.162,northeast,1.3,No
2017/04/23,02:30,0.377,0.230,0.393,0.362,0.329,0.191,0.161,northwest,2.3,No
2017/04/23,02:40,0.377,0.230,0.392,0.362,0.330,0.192,0.162,north-northwest,3.1,No
2017/04/23,02:50,0.376,0.229,0.393,0.363,0.329,0.192,0.160,northwest,4.5,No
2017/04/23,03:00,0.376,0.230,0.392,0.361,0.329,0.192,0.161,north-northwest,4.2,No
2017/04/23,03:10,0.377,0.230,0.391,0.362,0.329,0.192,0.162,north-northwest,5.3,No
2017/04/23,03:20,0.377,0.229,0.393,0.364,0.330,0.192,0.162,north-northwest,6.3,No
2017/04/23,03:30,0.377,0.230,0.392,0.363,0.329,0.191,0.161,north-northwest,4.5,No
2017/04/23,03:40,0.376,0.230,0.392,0.362,0.330,0.191,0.160,north-northwest,5.3,No
2017/04/23,03:50,0.378,0.230,0.391,0.362,0.332,0.192,0.162,north-northwest,5.8,No
2017/04/23,04:00,0.377,0.231,0.392,0.363,0.330,0.192,0.162,north-northwest,5.6,No
2017/04/23,04:10,0.376,0.231,0.392,0.363,0.330,0.192,0.161,north-northwest,5.7,No
2017/04/23,04:20,0.376,0.230,0.391,0.362,0.329,0.191,0.161,north-northwest,4.6,No
2017/04/23,04:30,0.377,0.229,0.391,0.363,0.330,0.192,0.161,north-northwest,3.9,No
2017/04/23,04:40,0.377,0.229,0.392,0.364,0.328,0.191,0.162,north-northwest,3.9,No
2017/04/23,04:50,0.375,0.229,0.393,0.362,0.328,0.192,0.160,north-northwest,4.0,No
2017/04/23,05:00,0.376,0.230,0.391,0.362,0.331,0.192,0.161,north-northwest,6.3,No
2017/04/23,05:10,0.376,0.230,0.390,0.361,0.328,0.192,0.161,north-northwest,6.6,No
2017/04/23,05:20,0.375,0.229,0.393,0.363,0.329,0.191,0.162,north-northwest,6.4,No
2017/04/23,05:30,0.376,0.230,0.392,0.362,0.328,0.191,0.162,northwest,5.6,No
2017/04/23,05:40,0.379,0.230,0.391,0.361,0.330,0.193,0.161,northwest,5.3,No
2017/04/23,05:50,0.377,0.230,0.391,0.362,0.331,0.192,0.161,north-northwest,5.1,No
2017/04/23,06:00,0.376,0.229,0.391,0.363,0.331,0.191,0.161,north-northwest,5.8,No
2017/04/23,06:10,0.377,0.230,0.394,0.363,0.330,0.193,0.161,north,5.6,No
2017/04/23,06:20,0.376,0.230,0.391,0.362,0.330,0.191,0.159,north-northwest,4.5,No
2017/04/23,06:30,0.375,0.229,0.391,0.362,0.330,0.193,0.161,northwest,3.7,No
2017/04/23,06:40,0.378,0.230,0.393,0.363,0.328,0.191,0.159,northwest,3.7,No
2017/04/23,06:50,0.377,0.230,0.391,0.361,0.330,0.190,0.160,north,3.1,No
2017/04/23,07:00,0.375,0.230,0.389,0.361,0.328,0.192,0.160,north,3.8,No
2017/04/23,07:10,0.377,0.229,0.391,0.359,0.329,0.191,0.160,north-northeast,4.4,No
2017/04/23,07:20,0.377,0.228,0.389,0.362,0.331,0.191,0.160,north-northeast,4.5,No
2017/04/23,07:30,0.376,0.228,0.390,0.358,0.329,0.191,0.161,north-northeast,4.2,No
2017/04/23,07:40,0.376,0.228,0.393,0.362,0.330,0.191,0.160,northeast,5.4,No
2017/04/23,07:50,0.378,0.229,0.390,0.360,0.331,0.191,0.161,northeast,5.0,No
2017/04/23,08:00,0.375,0.227,0.391,0.362,0.328,0.191,0.160,northeast,5.3,No
2017/04/23,08:10,0.375,0.228,0.392,0.357,0.328,0.192,0.161,north-northeast,5.4,No
2017/04/23,08:20,0.375,0.229,0.391,0.362,0.329,0.190,0.160,northeast,5.6,No
2017/04/23,08:30,0.374,0.229,0.392,0.360,0.326,0.190,0.160,northeast,4.5,No
2017/04/23,08:40,0.378,0.229,0.391,0.360,0.331,0.190,0.160,northeast,4.5,No
2017/04/23,08:50,0.376,0.229,0.391,0.361,0.327,0.190,0.160,north-northeast,5.7,No
2017/04/23,09:00,0.376,0.229,0.392,0.358,0.331,0.191,0.161,northeast,5.0,No
2017/04/23,09:10,0.376,0.228,0.390,0.361,0.326,0.190,0.161,northeast,3.6,No
2017/04/23,09:20,0.377,0.229,0.391,0.358,0.330,0.190,0.161,northeast,3.6,No
2017/04/23,09:30,0.374,0.228,0.390,0.360,0.327,0.190,0.159,northeast,5.3,No
2017/04/23,09:40,0.377,0.229,0.391,0.361,0.330,0.190,0.161,north-northeast,3.5,No
2017/04/23,09:50,0.374,0.229,0.392,0.358,0.327,0.190,0.160,east-northeast,3.4,No
2017/04/23,10:00,0.376,0.230,0.390,0.362,0.329,0.191,0.160,northeast,4.5,No
2017/04/23,10:10,0.374,0.229,0.392,0.360,0.327,0.191,0.161,northeast,4.8,No
2017/04/23,10:20,0.376,0.229,0.392,0.358,0.329,0.190,0.161,northeast,5.8,No
2017/04/23,10:30,0.375,0.230,0.391,0.362,0.328,0.190,0.160,northeast,5.9,No
2017/04/23,10:40,0.376,0.228,0.390,0.358,0.331,0.190,0.162,northeast,5.6,No
2017/04/23,10:50,0.375,0.230,0.390,0.362,0.327,0.190,0.161,north-northeast,6.3,No
2017/04/23,11:00,0.376,0.229,0.388,0.362,0.329,0.191,0.162,northeast,7.3,No
2017/04/23,11:10,0.376,0.230,0.392,0.359,0.328,0.190,0.161,north-northeast,6.5,No
2017/04/23,11:20,0.376,0.230,0.390,0.360,0.330,0.192,0.162,north-northeast,7.4,No
2017/04/23,11:30,0.375,0.230,0.392,0.361,0.328,0.191,0.160,north-northeast,9.4,No
2017/04/23,11:40,0.376,0.229,0.390,0.360,0.330,0.190,0.162,north-northeast,10.4,No
2017/04/23,11:50,0.377,0.229,0.390,0.363,0.330,0.191,0.162,north-northeast,5.8,No
2017/04/23,12:00,0.376,0.230,0.390,0.361,0.328,0.190,0.161,northeast,6.5,No
2017/04/23,12:10,0.377,0.229,0.389,0.360,0.330,0.192,0.162,northeast,5.5,No
2017/04/23,12:20,0.378,0.229,0.394,0.362,0.327,0.190,0.161,northeast,5.7,No
2017/04/23,12:30,0.378,0.229,0.388,0.361,0.331,0.191,0.162,northeast,5.2,No
2017/04/23,12:40,0.378,0.231,0.392,0.360,0.330,0.190,0.160,north-northeast,5.1,No
2017/04/23,12:50,0.377,0.229,0.391,0.363,0.330,0.191,0.161,northeast,5.7,No
2017/04/23,13:00,0.377,0.231,0.388,0.359,0.328,0.192,0.160,northeast,4.9,No
2017/04/23,13:10,0.378,0.230,0.392,0.362,0.330,0.190,0.161,northeast,4.2,No
2017/04/23,13:20,0.378,0.228,0.390,0.362,0.330,0.192,0.162,northeast,4.4,No
2017/04/23,13:30,0.377,0.230,0.389,0.360,0.329,0.190,0.161,north-northeast,4.6,No
2017/04/23,13:40,0.376,0.230,0.393,0.361,0.329,0.190,0.163,north-northeast,6.8,No
2017/04/23,13:50,0.379,0.230,0.391,0.364,0.329,0.191,0.161,northeast,8.5,No
2017/04/23,14:00,0.376,0.229,0.391,0.360,0.331,0.190,0.162,northeast,6.1,No
2017/04/23,14:10,0.377,0.231,0.393,0.364,0.327,0.192,0.161,east-northeast,3.7,No
2017/04/23,14:20,0.374,0.230,0.389,0.363,0.333,0.191,0.162,northeast,4.8,No
2017/04/23,14:30,0.378,0.230,0.391,0.361,0.328,0.192,0.161,northeast,7.0,No
2017/04/23,14:40,0.377,0.230,0.390,0.364,0.329,0.191,0.161,north-northeast,4.7,No
2017/04/23,14:50,0.378,0.231,0.390,0.363,0.331,0.191,0.161,northeast,4.5,No
2017/04/23,15:00,0.377,0.228,0.393,0.364,0.330,0.192,0.161,northeast,3.1,No
2017/04/23,15:10,0.379,0.231,0.391,0.362,0.332,0.190,0.161,northeast,3.5,No
2017/04/23,15:20,0.378,0.230,0.394,0.367,0.328,0.191,0.163,northeast,3.3,No
2017/04/23,15:30,0.377,0.230,0.392,0.363,0.331,0.191,0.161,northeast,3.6,No
2017/04/23,15:40,0.378,0.231,0.395,0.366,0.329,0.192,0.162,northeast,3.1,No
2017/04/23,15:50,0.377,0.230,0.393,0.363,0.333,0.192,0.161,east-northeast,2.5,No
2017/04/23,16:00,0.379,0.231,0.394,0.366,0.329,0.192,0.161,east-northeast,3.1,No
2017/04/23,16:10,0.378,0.230,0.393,0.363,0.331,0.190,0.163,east-northeast,2.8,No
2017/04/23,16:20,0.378,0.232,0.394,0.365,0.330,0.191,0.161,northeast,2.3,No
2017/04/23,16:30,0.375,0.231,0.394,0.365,0.331,0.191,0.162,north-northeast,1.4,No
2017/04/23,16:40,0.379,0.230,0.393,0.363,0.329,0.192,0.161,northeast,3.2,No
2017/04/23,16:50,0.377,0.230,0.394,0.365,0.330,0.192,0.162,northeast,1.9,No
2017/04/23,17:00,0.380,0.231,0.393,0.364,0.330,0.190,0.161,north-northeast,2.4,No
2017/04/23,17:10,0.376,0.229,0.394,0.365,0.330,0.192,0.162,north-northeast,2.1,No
2017/04/23,17:20,0.377,0.231,0.395,0.363,0.331,0.190,0.162,north-northeast,2.5,No
2017/04/23,17:30,0.378,0.230,0.391,0.364,0.329,0.191,0.162,north-northeast,3.0,No
2017/04/23,17:40,0.377,0.231,0.394,0.366,0.331,0.191,0.162,north-northeast,3.5,No
2017/04/23,17:50,0.380,0.232,0.393,0.365,0.329,0.192,0.161,north-northeast,3.1,No
2017/04/23,18:00,0.376,0.231,0.394,0.364,0.332,0.192,0.162,north-northeast,2.2,No
2017/04/23,18:10,0.378,0.230,0.395,0.365,0.331,0.191,0.162,north,2.7,No
2017/04/23,18:20,0.380,0.231,0.394,0.366,0.330,0.190,0.162,north,2.8,No
2017/04/23,18:30,0.377,0.231,0.396,0.364,0.331,0.192,0.162,northeast,2.0,No
2017/04/23,18:40,0.379,0.231,0.395,0.364,0.330,0.191,0.162,northeast,3.0,No
2017/04/23,18:50,0.378,0.232,0.392,0.366,0.329,0.191,0.162,northeast,3.3,No
2017/04/23,19:00,0.377,0.230,0.396,0.362,0.332,0.192,0.162,northeast,4.5,No
2017/04/23,19:10,0.378,0.230,0.394,0.364,0.329,0.191,0.163,northeast,3.3,No
2017/04/23,19:20,0.379,0.230,0.393,0.366,0.330,0.191,0.162,northeast,3.6,No
2017/04/23,19:30,0.379,0.231,0.396,0.364,0.331,0.192,0.163,northeast,4.5,No
2017/04/23,19:40,0.379,0.231,0.393,0.365,0.331,0.192,0.162,northeast,3.5,No
2017/04/23,19:50,0.378,0.231,0.393,0.365,0.329,0.192,0.163,northeast,2.9,No
2017/04/23,20:00,0.379,0.230,0.395,0.364,0.331,0.193,0.163,northeast,3.1,No
2017/04/23,20:10,0.378,0.230,0.393,0.364,0.329,0.191,0.160,northeast,2.8,No
2017/04/23,20:20,0.378,0.230,0.392,0.364,0.330,0.191,0.163,northeast,2.9,No
2017/04/23,20:30,0.377,0.231,0.395,0.363,0.330,0.191,0.162,northeast,3.4,No
2017/04/23,20:40,0.378,0.232,0.392,0.365,0.328,0.190,0.162,east-northeast,2.0,No
2017/04/23,20:50,0.378,0.231,0.394,0.364,0.332,0.191,0.162,east-northeast,2.3,No
2017/04/23,21:00,0.379,0.230,0.393,0.362,0.330,0.191,0.162,north-northeast,2.9,No
2017/04/23,21:10,0.378,0.231,0.393,0.365,0.330,0.191,0.162,north-northeast,3.6,No
2017/04/23,21:20,0.377,0.230,0.394,0.363,0.332,0.191,0.161,north-northeast,2.8,No
2017/04/23,21:30,0.378,0.230,0.394,0.363,0.329,0.191,0.162,northeast,2.5,No
2017/04/23,21:40,0.379,0.231,0.393,0.365,0.330,0.191,0.161,northeast,2.2,No
2017/04/23,21:50,0.378,0.230,0.393,0.363,0.330,0.191,0.162,east-northeast,1.9,No
2017/04/23,22:00,0.379,0.231,0.394,0.364,0.330,0.192,0.161,east,1.3,No
2017/04/23,22:10,0.377,0.231,0.392,0.365,0.329,0.191,0.161,east-southeast,1.7,No
2017/04/23,22:20,0.381,0.231,0.394,0.362,0.331,0.191,0.163,east-northeast,1.3,No
2017/04/23,22:30,0.378,0.230,0.393,0.364,0.329,0.191,0.162,east-southeast,1.5,No
2017/04/23,22:40,0.376,0.230,0.392,0.363,0.331,0.191,0.161,east-northeast,0.8,No
2017/04/23,22:50,0.379,0.230,0.394,0.364,0.329,0.189,0.162,northeast,1.4,No
2017/04/23,23:00,0.376,0.230,0.393,0.365,0.329,0.190,0.161,east-northeast,1.1,No
2017/04/23,23:10,0.376,0.231,0.393,0.363,0.331,0.191,0.161,east,1.4,No
2017/04/23,23:20,0.379,0.231,0.396,0.362,0.330,0.192,0.161,east-southeast,1.2,No
2017/04/23,23:30,0.375,0.230,0.392,0.366,0.329,0.192,0.162,east,1.4,No
2017/04/23,23:40,0.379,0.230,0.394,0.363,0.330,0.191,0.162,east-northeast,1.2,No
2017/04/23,23:50,0.378,0.230,0.392,0.364,0.330,0.192,0.161,east,0.8,No
